aerodrome LA FERTE GAUCHER, LFFG, pilots, aviation, flying | pilotspace.eu

LA FERTE GAUCHER

aerodrome LA FERTE GAUCHER

ICAO/ID: LFFG
France
web: Réservé au parachutisme et aux avions de servitude
show on the map

LFPM 231900Z AUTO 30005KT 9999 NSC 16/09 Q1019

TAF LFPG 231700Z 2318/2424 20005KT 9999 SCT016 SCT050 BKN210 TEMPO 2319/2321 VRB02KT TEMPO 2321/2406 4500 -RA BKN010 PROB30 TEMPO 2321/2407 3000 RA BKN008 BECMG 2410/2412 01006KT PROB30 TEMPO 2412/2415 FEW030TCU BECMG 2421/2423 BKN008 TX17/2415Z TN11/2405Z

general information

altitude: 538 ft
latitude: 48 45 21 N
longitude: 003 16 36 E

traffic information

RWY: 05/23: 3,609 ft (1,100 m) — surface unknown
report copyright

Online pilot logbook: free for each registered member! http://www.pilotlogbook.eu


last flights

RECENTLY ADDED

Let.příručka ALTO

09/03/2014 (7x)

Roman Máca

Let.příručka ALTO

09/03/2014 (1x)

Roman Máca

ULRBK

08/02/2014 (10x)

northwolf

L-13 AC - akrobacie

L-13 AC - akrobacie

05/02/2014 (14x)

Davidlet

inzerát

inzerát

28/09/2013 (21x)

béza48

landing LZIB

landing LZIB

17/09/2013 (24x)

Kovino

tulák zelený

tulák zelený

17/09/2013 (18x)

Ivan Wolf

PPJ SK - Martin 2013

PPJ SK - Martin 2013

25/08/2013 (2x)

Kulda